TimePST,TemperatureF,Dew PointF,Humidity,Sea Level PressureIn,VisibilityMPH,Wind Direction,Wind SpeedMPH,Gust SpeedMPH,PrecipitationIn,Events,Conditions,WindDirDegrees,DateUTC
12:53 AM,42.1,30.0,62,29.98,10.0,NW,10.4,18.4,N/A,,Clear,310,2013-11-20 08:53:00
1:53 AM,41.0,28.9,62,30.01,10.0,NW,8.1,-,N/A,,Clear,310,2013-11-20 09:53:00
2:53 AM,41.0,30.0,65,30.03,10.0,NW,12.7,20.7,N/A,,Clear,320,2013-11-20 10:53:00
3:53 AM,39.9,30.0,68,30.06,10.0,NW,15.0,26.5,N/A,,Clear,320,2013-11-20 11:53:00
4:53 AM,39.9,28.9,65,30.10,10.0,NNW,15.0,-,N/A,,Clear,330,2013-11-20 12:53:00
5:53 AM,37.0,30.0,76,30.14,10.0,NNW,10.4,-,N/A,,Clear,330,2013-11-20 13:53:00
6:53 AM,34.0,28.9,82,30.19,10.0,ENE,3.5,-,N/A,,Clear,60,2013-11-20 14:53:00
7:53 AM,34.0,28.9,82,30.24,10.0,Calm,Calm,-,N/A,,Clear,0,2013-11-20 15:53:00
8:53 AM,37.0,30.0,76,30.28,10.0,Calm,Calm,-,N/A,,Clear,0,2013-11-20 16:53:00
9:53 AM,41.0,25.0,53,30.31,10.0,ESE,4.6,-,N/A,,Clear,120,2013-11-20 17:53:00
10:53 AM,43.0,19.0,38,30.32,10.0,East,8.1,-,N/A,,Clear,80,2013-11-20 18:53:00
11:53 AM,44.1,18.0,35,30.31,10.0,ESE,11.5,-,N/A,,Clear,110,2013-11-20 19:53:00
12:53 PM,45.0,15.1,30,30.30,10.0,East,10.4,-,N/A,,Clear,80,2013-11-20 20:53:00
1:53 PM,45.0,10.9,25,30.30,10.0,ESE,6.9,-,N/A,,Clear,110,2013-11-20 21:53:00
2:53 PM,44.1,12.0,27,30.32,10.0,East,6.9,-,N/A,,Clear,100,2013-11-20 22:53:00
3:53 PM,39.9,12.0,32,30.35,10.0,ESE,5.8,-,N/A,,Clear,120,2013-11-20 23:53:00
4:53 PM,33.1,17.1,52,30.36,10.0,NE,4.6,-,N/A,,Clear,50,2013-11-21 00:53:00
5:53 PM,32.0,16.0,52,30.40,10.0,East,8.1,-,N/A,,Clear,100,2013-11-21 01:53:00
6:53 PM,28.9,16.0,58,30.43,10.0,ESE,6.9,-,N/A,,Clear,110,2013-11-21 02:53:00
7:53 PM,28.0,16.0,61,30.44,10.0,ESE,9.2,-,N/A,,Clear,110,2013-11-21 03:53:00
8:53 PM,26.1,15.1,63,30.46,10.0,ESE,5.8,-,N/A,,Clear,110,2013-11-21 04:53:00
9:53 PM,24.1,15.1,69,30.49,10.0,ESE,5.8,-,N/A,,Clear,110,2013-11-21 05:53:00
10:53 PM,23.0,15.1,72,30.50,10.0,ESE,6.9,-,N/A,,Clear,120,2013-11-21 06:53:00
11:53 PM,21.0,14.0,74,30.52,10.0,ESE,6.9,-,N/A,,Clear,120,2013-11-21 07:53:00